Wetterdaten: Samstag, 17.07.2004
Datum Zeit Temp. A Sch. Temp. A Son. Feuchte A. Luftdruck Regen Wind Richtung Richtung Sonnenschein Helligkeit Taupunkt Windchill
17.07.2004 00:00 15,4 C 17,1 C 89 % 1017 hPa 0,0 l/m 0,0 m/s (0 Bft) O-NO 65 0,00 min 0 lux 13,6 C 15,4 C
17.07.2004 00:05 15,4 C 16,8 C 89 % 1017 hPa 0,0 l/m 0,0 m/s (0 Bft) O-NO 65 0,00 min 0 lux 13,6 C 15,4 C
17.07.2004 00:10 15,3 C 16,7 C 89 % 1017 hPa 0,0 l/m 0,0 m/s (0 Bft) O-NO 65 0,00 min 0 lux 13,5 C 15,3 C
17.07.2004 00:15 15,3 C 16,6 C 90 % 1017 hPa 0,0 l/m 0,0 m/s (0 Bft) O-NO 65 0,00 min 0 lux 13,7 C 15,3 C
17.07.2004 00:20 15,1 C 16,6 C 90 % 1017 hPa 0,0 l/m 0,0 m/s (0 Bft) O-NO 65 0,00 min 0 lux 13,5 C 15,1 C
17.07.2004 00:25 15,1 C 16,5 C 90 % 1017 hPa 0,0 l/m 0,0 m/s (0 Bft) O-NO 65 0,00 min 0 lux 13,5 C 15,1 C
17.07.2004 00:30 15,0 C 16,4 C 90 % 1017 hPa 0,0 l/m 0,0 m/s (0 Bft) O-NO 65 0,00 min 0 lux 13,4 C 15,0 C
17.07.2004 00:35 15,0 C 16,3 C 90 % 1017 hPa 0,0 l/m 0,0 m/s (0 Bft) O-NO 65 0,00 min 0 lux 13,4 C 15,0 C
17.07.2004 00:40 14,9 C 16,2 C 91 % 1017 hPa 0,0 l/m 0,0 m/s (0 Bft) O-NO 65 0,00 min 0 lux 13,4 C 14,9 C
17.07.2004 00:45 14,8 C 16,0 C 91 % 1017 hPa 0,0 l/m 0,0 m/s (0 Bft) O-NO 65 0,00 min 0 lux 13,3 C 14,8 C
17.07.2004 00:50 14,8 C 15,9 C 91 % 1017 hPa 0,0 l/m 0,0 m/s (0 Bft) O-NO 65 0,00 min 0 lux 13,3 C 14,8 C
17.07.2004 00:55 14,8 C 15,9 C 91 % 1017 hPa 0,0 l/m 0,0 m/s (0 Bft) O-NO 65 0,00 min 0 lux 13,3 C 14,8 C
17.07.2004 01:00 14,6 C 15,8 C 91 % 1017 hPa 0,0 l/m 0,0 m/s (0 Bft) O-NO 65 0,00 min 0 lux 13,1 C 14,6 C
17.07.2004 01:05 14,5 C 15,7 C 91 % 1017 hPa 0,0 l/m 0,0 m/s (0 Bft) O-NO 65 0,00 min 0 lux 13,0 C 14,5 C
17.07.2004 01:10 14,5 C 15,7 C 91 % 1017 hPa 0,0 l/m 0,0 m/s (0 Bft) O-NO 65 0,00 min 0 lux 13,0 C 14,5 C
17.07.2004 01:15 14,4 C 15,6 C 91 % 1017 hPa 0,0 l/m 0,0 m/s (0 Bft) O-NO 65 0,00 min 0 lux 12,9 C 14,4 C
17.07.2004 01:20 14,3 C 15,6 C 91 % 1017 hPa 0,0 l/m 0,0 m/s (0 Bft) O-NO 65 0,00 min 0 lux 12,8 C 14,3 C
17.07.2004 01:25 14,4 C 15,4 C 91 % 1017 hPa 0,0 l/m 0,0 m/s (0 Bft) O-NO 65 0,00 min 0 lux 12,9 C 14,4 C
17.07.2004 01:30 14,2 C 15,4 C 91 % 1017 hPa 0,0 l/m 0,0 m/s (0 Bft) O-NO 65 0,00 min 0 lux 12,8 C 14,2 C
17.07.2004 01:35 14,1 C 15,3 C 91 % 1017 hPa 0,0 l/m 0,0 m/s (0 Bft) O-NO 65 0,00 min 0 lux 12,7 C 14,1 C
17.07.2004 01:40 14,1 C 15,2 C 91 % 1017 hPa 0,0 l/m 0,0 m/s (0 Bft) O-NO 65 0,00 min 0 lux 12,7 C 14,1 C
17.07.2004 01:45 14,0 C 15,2 C 91 % 1017 hPa 0,0 l/m 0,0 m/s (0 Bft) O-NO 65 0,00 min 0 lux 12,6 C 14,0 C
17.07.2004 01:50 13,9 C 15,0 C 92 % 1017 hPa 0,0 l/m 0,0 m/s (0 Bft) O-NO 65 0,00 min 0 lux 12,6 C 13,9 C
17.07.2004 01:55 13,8 C 14,9 C 92 % 1017 hPa 0,0 l/m 0,0 m/s (0 Bft) O-NO 65 0,00 min 0 lux 12,5 C 13,8 C
17.07.2004 02:00 13,8 C 14,9 C 92 % 1017 hPa 0,0 l/m 0,0 m/s (0 Bft) O-NO 65 0,00 min 0 lux 12,5 C 13,8 C
17.07.2004 02:05 13,8 C 14,8 C 92 % 1017 hPa 0,0 l/m 0,0 m/s (0 Bft) O-NO 65 0,00 min 0 lux 12,5 C 13,8 C
17.07.2004 02:10 13,8 C 14,8 C 92 % 1017 hPa 0,0 l/m 0,0 m/s (0 Bft) O-NO 65 0,00 min 0 lux 12,5 C 13,8 C
17.07.2004 02:15 13,8 C 14,7 C 92 % 1017 hPa 0,0 l/m 0,0 m/s (0 Bft) O-NO 65 0,00 min 0 lux 12,5 C 13,8 C
17.07.2004 02:20 13,8 C 14,7 C 92 % 1017 hPa 0,0 l/m 0,0 m/s (0 Bft) O-NO 65 0,00 min 0 lux 12,5 C 13,8 C
17.07.2004 02:25 13,8 C 14,7 C 92 % 1017 hPa 0,0 l/m 0,0 m/s (0 Bft) O-NO 65 0,00 min 0 lux 12,5 C 13,8 C
17.07.2004 02:30 13,8 C 14,6 C 92 % 1017 hPa 0,0 l/m 0,0 m/s (0 Bft) O-NO 65 0,00 min 0 lux 12,5 C 13,8 C
17.07.2004 02:35 13,9 C 14,5 C 92 % 1017 hPa 0,0 l/m 0,0 m/s (0 Bft) O-NO 65 0,00 min 0 lux 12,6 C 13,9 C
17.07.2004 02:40 13,8 C 14,5 C 92 % 1017 hPa 0,0 l/m 0,0 m/s (0 Bft) O-NO 65 0,00 min 0 lux 12,5 C 13,8 C
17.07.2004 02:45 13,7 C 14,5 C 92 % 1017 hPa 0,0 l/m 0,0 m/s (0 Bft) O-NO 65 0,00 min 0 lux 12,4 C 13,7 C
17.07.2004 02:50 13,5 C 14,5 C 92 % 1017 hPa 0,0 l/m 0,0 m/s (0 Bft) O-NO 65 0,00 min 0 lux 12,2 C 13,5 C
17.07.2004 02:55 13,5 C 14,5 C 92 % 1017 hPa 0,0 l/m 0,0 m/s (0 Bft) O-NO 65 0,00 min 0 lux 12,2 C 13,5 C
17.07.2004 03:00 13,5 C 14,5 C 92 % 1017 hPa 0,0 l/m 0,0 m/s (0 Bft) O-NO 65 0,00 min 0 lux 12,2 C 13,5 C
17.07.2004 03:05 13,4 C 14,5 C 92 % 1017 hPa 0,0 l/m 0,0 m/s (0 Bft) O-NO 65 0,00 min 0 lux 12,1 C 13,4 C
17.07.2004 03:10 13,6 C 14,4 C 92 % 1017 hPa 0,0 l/m 0,0 m/s (0 Bft) O-NO 65 0,00 min 0 lux 12,3 C 13,6 C
17.07.2004 03:15 13,5 C 14,4 C 92 % 1017 hPa 0,0 l/m 0,0 m/s (0 Bft) O-NO 65 0,00 min 0 lux 12,2 C 13,5 C
17.07.2004 03:20 13,4 C 14,4 C 92 % 1016 hPa 0,0 l/m 0,0 m/s (0 Bft) O-NO 65 0,00 min 0 lux 12,1 C 13,4 C
17.07.2004 03:25 13,3 C 14,4 C 92 % 1016 hPa 0,0 l/m 0,0 m/s (0 Bft) O-NO 65 0,00 min 0 lux 12,0 C 13,3 C
17.07.2004 03:30 13,2 C 14,4 C 92 % 1016 hPa 0,0 l/m 0,0 m/s (0 Bft) O-NO 65 0,00 min 0 lux 11,9 C 13,2 C
17.07.2004 03:35 13,2 C 14,4 C 92 % 1016 hPa 0,0 l/m 0,0 m/s (0 Bft) O-NO 65 0,00 min 0 lux 11,9 C 13,2 C
17.07.2004 03:40 13,2 C 14,3 C 92 % 1016 hPa 0,0 l/m 0,0 m/s (0 Bft) O-NO 65 0,00 min 0 lux 11,9 C 13,2 C
17.07.2004 03:45 13,1 C 14,3 C 92 % 1016 hPa 0,0 l/m 0,0 m/s (0 Bft) O-NO 65 0,00 min 0 lux 11,8 C 13,1 C
17.07.2004 03:50 13,1 C 14,3 C 92 % 1016 hPa 0,0 l/m 0,0 m/s (0 Bft) O-NO 65 0,00 min 0 lux 11,8 C 13,1 C
17.07.2004 03:55 13,0 C 14,2 C 92 % 1016 hPa 0,0 l/m 0,0 m/s (0 Bft) O-NO 65 0,00 min 0 lux 11,7 C 13,0 C
17.07.2004 04:00 13,0 C 14,1 C 92 % 1016 hPa 0,0 l/m 0,0 m/s (0 Bft) O-NO 65 0,00 min 0 lux 11,7 C 13,0 C
17.07.2004 04:05 13,0 C 14,2 C 92 % 1016 hPa 0,0 l/m 0,0 m/s (0 Bft) O-NO 65 0,00 min 0 lux 11,7 C 13,0 C
17.07.2004 04:10 13,2 C 14,2 C 92 % 1016 hPa 0,0 l/m 0,0 m/s (0 Bft) O-NO 65 0,00 min 0 lux 11,9 C 13,2 C
17.07.2004 04:15 13,3 C 14,2 C 93 % 1016 hPa 0,0 l/m 0,0 m/s (0 Bft) O-NO 65 0,00 min 0 lux 12,2 C 13,3 C
17.07.2004 04:20 13,3 C 14,3 C 93 % 1016 hPa 0,0 l/m 0,0 m/s (0 Bft) O-NO 65 0,00 min 0 lux 12,2 C 13,3 C
17.07.2004 04:25 13,3 C 14,3 C 93 % 1016 hPa 0,0 l/m 0,0 m/s (0 Bft) O-NO 65 0,00 min 0 lux 12,2 C 13,3 C
17.07.2004 04:30 13,4 C 14,3 C 93 % 1016 hPa 0,0 l/m 0,0 m/s (0 Bft) O-NO 65 0,00 min 0 lux 12,3 C 13,4 C
17.07.2004 04:35 13,5 C 14,2 C 93 % 1016 hPa 0,0 l/m 0,0 m/s (0 Bft) O-NO 65 0,00 min 0 lux 12,4 C 13,5 C
17.07.2004 04:40 13,5 C 14,3 C 93 % 1016 hPa 0,0 l/m 0,0 m/s (0 Bft) O-NO 65 0,00 min 0 lux 12,4 C 13,5 C
17.07.2004 04:45 13,5 C 14,3 C 93 % 1016 hPa 0,0 l/m 0,0 m/s (0 Bft) O-NO 65 0,00 min 0 lux 12,4 C 13,5 C
17.07.2004 04:50 13,4 C 14,3 C 93 % 1016 hPa 0,0 l/m 0,0 m/s (0 Bft) O-NO 65 0,00 min 0 lux 12,3 C 13,4 C
17.07.2004 04:55 13,5 C 14,3 C 93 % 1016 hPa 0,0 l/m 0,0 m/s (0 Bft) O-NO 65 0,00 min 0 lux 12,4 C 13,5 C
17.07.2004 05:00 13,5 C 14,3 C 93 % 1016 hPa 0,0 l/m 0,0 m/s (0 Bft) O-NO 65 0,00 min 0 lux 12,4 C 13,5 C
17.07.2004 05:05 13,3 C 14,2 C 93 % 1016 hPa 0,0 l/m 0,0 m/s (0 Bft) O-NO 65 0,00 min 0 lux 12,2 C 13,3 C
17.07.2004 05:10 13,3 C 14,2 C 94 % 1016 hPa 0,0 l/m 0,0 m/s (0 Bft) O-NO 65 0,00 min 0 lux 12,4 C 13,3 C
17.07.2004 05:15 13,3 C 14,2 C 93 % 1016 hPa 0,0 l/m 0,0 m/s (0 Bft) O-NO 65 0,00 min 60 lux 12,2 C 13,3 C
17.07.2004 05:20 13,3 C 14,2 C 94 % 1016 hPa 0,0 l/m 0,0 m/s (0 Bft) O-NO 65 0,00 min 103 lux 12,4 C 13,3 C
17.07.2004 05:25 13,3 C 14,2 C 94 % 1016 hPa 0,0 l/m 0,0 m/s (0 Bft) O-NO 65 0,00 min 169 lux 12,4 C 13,3 C
17.07.2004 05:30 13,3 C 14,2 C 94 % 1016 hPa 0,0 l/m 0,0 m/s (0 Bft) O-NO 65 0,00 min 268 lux 12,4 C 13,3 C
17.07.2004 05:35 13,3 C 14,2 C 94 % 1016 hPa 0,0 l/m 0,0 m/s (0 Bft) O-NO 65 0,00 min 397 lux 12,4 C 13,3 C
17.07.2004 05:40 13,3 C 14,2 C 94 % 1016 hPa 0,0 l/m 0,0 m/s (0 Bft) O-NO 65 0,00 min 584 lux 12,4 C 13,3 C
17.07.2004 05:45 13,2 C 14,1 C 94 % 1017 hPa 0,0 l/m 0,0 m/s (0 Bft) O-NO 65 0,00 min 830 lux 12,3 C 13,2 C
17.07.2004 05:50 13,2 C 14,1 C 94 % 1017 hPa 0,0 l/m 0,0 m/s (0 Bft) O-NO 65 0,00 min 968 lux 12,3 C 13,2 C
17.07.2004 05:55 13,2 C 14,1 C 94 % 1017 hPa 0,0 l/m 0,0 m/s (0 Bft) O-NO 65 0,00 min 1,14 klux 12,3 C 13,2 C
17.07.2004 06:00 13,3 C 14,1 C 94 % 1017 hPa 0,0 l/m 0,0 m/s (0 Bft) O-NO 70 0,00 min 1,43 klux 12,4 C 13,3 C
17.07.2004 06:05 13,2 C 14,1 C 94 % 1017 hPa 0,0 l/m 0,0 m/s (0 Bft) O-NO 70 0,00 min 1,90 klux 12,3 C 13,2 C
17.07.2004 06:10 13,2 C 14,1 C 94 % 1017 hPa 0,0 l/m 0,0 m/s (0 Bft) O-NO 70 0,00 min 2,48 klux 12,3 C 13,2 C
17.07.2004 06:15 13,2 C 14,1 C 94 % 1017 hPa 0,0 l/m 0,0 m/s (0 Bft) O-NO 65 0,00 min 3,20 klux 12,3 C 13,2 C
17.07.2004 06:20 13,3 C 14,1 C 94 % 1017 hPa 0,0 l/m 0,0 m/s (0 Bft) O-NO 65 0,00 min 3,83 klux 12,4 C 13,3 C
17.07.2004 06:25 13,3 C 14,1 C 94 % 1017 hPa 0,0 l/m 0,0 m/s (0 Bft) O-NO 65 0,00 min 4,49 klux 12,4 C 13,3 C
17.07.2004 06:30 13,4 C 14,1 C 94 % 1017 hPa 0,0 l/m 0,0 m/s (0 Bft) O-NO 65 0,00 min 4,26 klux 12,5 C 13,4 C
17.07.2004 06:35 13,4 C 14,1 C 94 % 1017 hPa 0,0 l/m 0,0 m/s (0 Bft) O-NO 65 0,00 min 5,78 klux 12,5 C 13,4 C
17.07.2004 06:40 13,4 C 14,1 C 94 % 1017 hPa 0,0 l/m 0,0 m/s (0 Bft) O-NO 65 0,00 min 5,89 klux 12,5 C 13,4 C
17.07.2004 06:45 13,5 C 14,3 C 94 % 1017 hPa 0,0 l/m 0,0 m/s (0 Bft) O-NO 65 0,00 min 6,24 klux 12,6 C 13,5 C
17.07.2004 06:50 13,5 C 14,3 C 94 % 1017 hPa 0,0 l/m 0,0 m/s (0 Bft) O-NO 65 0,00 min 7,01 klux 12,6 C 13,5 C
17.07.2004 06:55 13,7 C 14,4 C 94 % 1017 hPa 0,0 l/m 0,0 m/s (0 Bft) O-NO 65 0,00 min 8,32 klux 12,8 C 13,7 C
17.07.2004 07:00 13,5 C 14,4 C 94 % 1017 hPa 0,0 l/m 0,0 m/s (0 Bft) O-NO 65 0,00 min 9,1 klux 12,6 C 13,5 C
17.07.2004 07:05 13,8 C 14,4 C 94 % 1017 hPa 0,0 l/m 0,0 m/s (0 Bft) O-NO 65 0,00 min 10,0 klux 12,9 C 13,8 C
17.07.2004 07:10 14,1 C 14,5 C 93 % 1017 hPa 0,0 l/m 0,0 m/s (0 Bft) O-NO 65 0,00 min 12,8 klux 13,0 C 14,1 C
17.07.2004 07:15 14,1 C 14,5 C 93 % 1017 hPa 0,0 l/m 0,0 m/s (0 Bft) O-NO 65 0,00 min 15,1 klux 13,0 C 14,1 C
17.07.2004 07:20 14,5 C 14,7 C 92 % 1017 hPa 0,0 l/m 0,0 m/s (0 Bft) O-NO 65 0,00 min 16,8 klux 13,2 C 14,5 C
17.07.2004 07:25 14,4 C 14,7 C 91 % 1017 hPa 0,0 l/m 0,0 m/s (0 Bft) O-NO 65 0,00 min 17,4 klux 12,9 C 14,4 C
17.07.2004 07:30 14,4 C 14,8 C 90 % 1017 hPa 0,0 l/m 0,0 m/s (0 Bft) O-NO 65 0,00 min 21,1 klux 12,8 C 14,4 C
17.07.2004 07:35 14,5 C 14,9 C 88 % 1017 hPa 0,0 l/m 0,0 m/s (0 Bft) O-NO 65 0,00 min 20,3 klux 12,5 C 14,5 C
17.07.2004 07:40 14,7 C 14,9 C 87 % 1016 hPa 0,0 l/m 0,0 m/s (0 Bft) O-NO 65 5,00 min 26,6 klux 12,6 C 14,7 C
17.07.2004 07:45 15,8 C 14,9 C 84 % 1016 hPa 0,0 l/m 0,0 m/s (0 Bft) O-NO 65 5,00 min 26,5 klux 13,1 C 15,8 C
17.07.2004 07:50 16,4 C 14,9 C 78 % 1016 hPa 0,0 l/m 0,0 m/s (0 Bft) O-NO22.5 70 5,00 min 31,6 klux 12,6 C 16,4 C
17.07.2004 07:55 16,2 C 14,9 C 77 % 1016 hPa 0,0 l/m 0,0 m/s (0 Bft) O 95 5,00 min 30,5 klux 12,2 C 16,2 C
17.07.2004 08:00 17,2 C 14,9 C 76 % 1016 hPa 0,0 l/m 0,0 m/s (0 Bft) O 95 5,00 min 31,9 klux 12,9 C 17,2 C
17.07.2004 08:05 18,5 C 14,9 C 69 % 1016 hPa 0,0 l/m 0,0 m/s (0 Bft) O 95 5,00 min 40,3 klux 12,7 C 18,5 C
17.07.2004 08:10 18,2 C 15,0 C 66 % 1016 hPa 0,0 l/m 0,0 m/s (0 Bft) O-SO 115 5,00 min 42,8 klux 11,7 C 18,2 C
17.07.2004 08:15 20,4 C 14,9 C 60 % 1016 hPa 0,0 l/m 0,0 m/s (0 Bft) O-SO 115 5,00 min 43,9 klux 12,4 C 20,4 C
17.07.2004 08:20 21,5 C 15,0 C 58 % 1016 hPa 0,0 l/m 0,0 m/s (0 Bft) O-NO 75 5,00 min 45,4 klux 12,9 C 21,5 C
17.07.2004 08:25 21,8 C 15,2 C 57 % 1016 hPa 0,0 l/m 0,0 m/s (0 Bft) O22.5 90 5,00 min 46,3 klux 12,9 C 21,8 C
17.07.2004 08:30 21,8 C 15,3 C 57 % 1016 hPa 0,0 l/m 0,0 m/s (0 Bft) O-SO22.5 115 5,00 min 47,5 klux 12,9 C 21,8 C
17.07.2004 08:35 21,5 C 15,6 C 55 % 1016 hPa 0,0 l/m 0,0 m/s (0 Bft) SO 140 5,00 min 48,7 klux 12,1 C 21,5 C
17.07.2004 08:40 22,9 C 15,8 C 52 % 1016 hPa 0,0 l/m 0,0 m/s (0 Bft) SO 135 5,00 min 50,1 klux 12,5 C 22,9 C
17.07.2004 08:45 21,1 C 16,0 C 57 % 1016 hPa 0,0 l/m 0,0 m/s (0 Bft) SO 135 5,00 min 51,3 klux 12,2 C 21,1 C
17.07.2004 08:50 20,2 C 16,2 C 67 % 1016 hPa 0,0 l/m 1,4 m/s (1 Bft) O-SO22.5 105 5,00 min 52,2 klux 13,9 C 20,2 C
17.07.2004 08:55 19,9 C 16,5 C 73 % 1016 hPa 0,0 l/m 1,9 m/s (1 Bft) O-SO22.5 105 5,00 min 54,2 klux 14,9 C 19,7 C
17.07.2004 09:00 20,0 C 16,8 C 72 % 1016 hPa 0,0 l/m 1,3 m/s (1 Bft) O-SO45 115 5,00 min 55,6 klux 14,8 C 20,0 C
17.07.2004 09:05 20,3 C 16,9 C 72 % 1016 hPa 0,0 l/m 2,0 m/s (1 Bft) O22.5 90 5,00 min 56,9 klux 15,1 C 20,0 C
17.07.2004 09:10 20,5 C 17,3 C 72 % 1016 hPa 0,0 l/m 2,1 m/s (1 Bft) O-SO22.5 115 5,00 min 58,4 klux 15,3 C 20,0 C
17.07.2004 09:15 20,9 C 17,6 C 69 % 1016 hPa 0,0 l/m 2,7 m/s (1 Bft) O-SO22.5 105 5,00 min 58,9 klux 15,0 C 19,8 C
17.07.2004 09:20 20,5 C 17,8 C 68 % 1016 hPa 0,0 l/m 3,7 m/s (1 Bft) O45 95 5,00 min 60,1 klux 14,4 C 18,2 C
17.07.2004 09:25 21,1 C 18,2 C 68 % 1016 hPa 0,0 l/m 3,2 m/s (1 Bft) O-SO45 105 5,00 min 61,6 klux 15,0 C 19,4 C
17.07.2004 09:30 21,0 C 18,4 C 68 % 1016 hPa 0,0 l/m 2,7 m/s (1 Bft) O-SO22.5 105 5,00 min 62,8 klux 14,9 C 19,8 C
17.07.2004 09:35 21,1 C 18,8 C 67 % 1016 hPa 0,0 l/m 3,4 m/s (1 Bft) O22.5 90 5,00 min 63,8 klux 14,7 C 19,2 C
17.07.2004 09:40 21,6 C 18,9 C 67 % 1016 hPa 0,0 l/m 2,9 m/s (1 Bft) O22.5 100 5,00 min 65,2 klux 15,2 C 20,3 C
17.07.2004 09:45 22,0 C 19,2 C 65 % 1016 hPa 0,0 l/m 2,1 m/s (1 Bft) O-SO45 110 5,00 min 66,5 klux 15,1 C 21,6 C
17.07.2004 09:50 22,2 C 19,4 C 65 % 1016 hPa 0,0 l/m 2,8 m/s (1 Bft) O45 100 5,00 min 67,6 klux 15,3 C 21,0 C
17.07.2004 09:55 22,4 C 19,6 C 62 % 1016 hPa 0,0 l/m 2,2 m/s (1 Bft) O45 85 5,00 min 68,9 klux 14,8 C 21,9 C
17.07.2004 10:00 22,8 C 20,1 C 62 % 1016 hPa 0,0 l/m 2,5 m/s (1 Bft) O45 95 5,00 min 69,7 klux 15,1 C 22,0 C
17.07.2004 10:05 22,9 C 21,0 C 61 % 1016 hPa 0,0 l/m 2,9 m/s (1 Bft) O-SO67.5 105 5,00 min 70,5 klux 15,0 C 21,7 C
17.07.2004 10:10 23,4 C 22,2 C 62 % 1016 hPa 0,0 l/m 2,9 m/s (1 Bft) O22.5 95 5,00 min 71,1 klux 15,7 C 22,3 C
17.07.2004 10:15 23,6 C 22,8 C 59 % 1016 hPa 0,0 l/m 3,2 m/s (1 Bft) O45 100 5,00 min 72,5 klux 15,1 C 22,3 C
17.07.2004 10:20 23,5 C 23,9 C 58 % 1016 hPa 0,0 l/m 3,1 m/s (1 Bft) O-SO22.5 105 5,00 min 73,6 klux 14,7 C 22,2 C
17.07.2004 10:25 23,8 C 24,9 C 58 % 1016 hPa 0,0 l/m 1,7 m/s (1 Bft) O67.5 80 5,00 min 74,9 klux 15,0 C 23,8 C
17.07.2004 10:30 24,0 C 25,3 C 57 % 1016 hPa 0,0 l/m 2,8 m/s (1 Bft) O45 90 5,00 min 76,2 klux 14,9 C 23,1 C
17.07.2004 10:35 24,3 C 26,1 C 58 % 1016 hPa 0,0 l/m 3,3 m/s (1 Bft) O-SO22.5 105 5,00 min 77,6 klux 15,5 C 23,0 C
17.07.2004 10:40 24,5 C 26,7 C 56 % 1016 hPa 0,0 l/m 3,4 m/s (1 Bft) O22.5 100 5,00 min 78,0 klux 15,1 C 23,2 C
17.07.2004 10:45 24,3 C 27,0 C 55 % 1016 hPa 0,0 l/m 3,9 m/s (1 Bft) O-NO67.5 70 5,00 min 79,4 klux 14,7 C 22,6 C
17.07.2004 10:50 24,3 C 27,5 C 54 % 1016 hPa 0,0 l/m 3,5 m/s (1 Bft) O-SO22.5 110 5,00 min 80,4 klux 14,4 C 22,9 C
17.07.2004 10:55 25,0 C 28,1 C 56 % 1016 hPa 0,0 l/m 3,6 m/s (1 Bft) O-SO45 105 5,00 min 82,1 klux 15,6 C 23,7 C
17.07.2004 11:00 25,2 C 28,7 C 53 % 1016 hPa 0,0 l/m 3,5 m/s (1 Bft) O-SO22.5 115 5,00 min 83,1 klux 14,9 C 23,9 C
17.07.2004 11:05 24,9 C 29,0 C 53 % 1016 hPa 0,0 l/m 2,9 m/s (1 Bft) O-SO45 105 5,00 min 61,2 klux 14,6 C 24,0 C
17.07.2004 11:10 25,5 C 29,3 C 53 % 1016 hPa 0,0 l/m 3,3 m/s (1 Bft) SO45 125 5,00 min 83,1 klux 15,2 C 24,4 C
17.07.2004 11:15 25,5 C 29,7 C 53 % 1016 hPa 0,0 l/m 3,6 m/s (1 Bft) SO45 125 5,00 min 86,9 klux 15,2 C 24,2 C
17.07.2004 11:20 25,5 C 29,8 C 52 % 1016 hPa 0,0 l/m 3,2 m/s (1 Bft) O45 100 5,00 min 91,9 klux 14,9 C 24,4 C
17.07.2004 11:25 25,7 C 29,5 C 50 % 1016 hPa 0,0 l/m 3,8 m/s (1 Bft) SO45 125 5,00 min 74,7 klux 14,5 C 24,3 C
17.07.2004 11:30 25,6 C 29,1 C 51 % 1016 hPa 0,0 l/m 3,1 m/s (1 Bft) SO45 130 0,00 min 40,4 klux 14,7 C 24,6 C
17.07.2004 11:35 25,3 C 28,6 C 51 % 1016 hPa 0,0 l/m 4,3 m/s (1 Bft) O-SO45 120 0,00 min 43,9 klux 14,4 C 23,6 C
17.07.2004 11:40 25,4 C 28,3 C 52 % 1016 hPa 0,0 l/m 4,3 m/s (1 Bft) O-SO22.5 115 5,00 min 110 klux 14,8 C 23,7 C
17.07.2004 11:45 25,4 C 28,4 C 52 % 1016 hPa 0,0 l/m 3,9 m/s (1 Bft) O-SO45 110 5,00 min 100 klux 14,8 C 23,9 C
17.07.2004 11:50 25,8 C 28,7 C 52 % 1016 hPa 0,0 l/m 5,6 m/s (1 Bft) O45 100 5,00 min 91,0 klux 15,2 C 23,7 C
17.07.2004 11:55 25,8 C 29,0 C 53 % 1016 hPa 0,0 l/m 4,0 m/s (1 Bft) O45 95 5,00 min 98,9 klux 15,5 C 24,4 C
17.07.2004 12:00 26,4 C 29,7 C 53 % 1016 hPa 0,0 l/m 4,4 m/s (1 Bft) O-SO22.5 115 5,00 min 97,1 klux 16,0 C 24,9 C
17.07.2004 12:05 25,6 C 29,8 C 51 % 1016 hPa 0,0 l/m 3,7 m/s (1 Bft) O45 100 0,00 min 44,1 klux 14,7 C 24,3 C
17.07.2004 12:10 26,3 C 29,8 C 51 % 1016 hPa 0,0 l/m 4,6 m/s (1 Bft) O-SO22.5 105 0,00 min 64,8 klux 15,3 C 24,7 C
17.07.2004 12:15 26,5 C 30,2 C 48 % 1016 hPa 0,0 l/m 4,0 m/s (1 Bft) SO45 130 5,00 min 102 klux 14,6 C 25,2 C
17.07.2004 12:20 26,5 C 30,7 C 48 % 1016 hPa 0,0 l/m 4,6 m/s (1 Bft) O-SO45 105 5,00 min 91,1 klux 14,6 C 24,9 C
17.07.2004 12:25 26,2 C 30,8 C 48 % 1016 hPa 0,0 l/m 3,9 m/s (1 Bft) O-SO45 115 5,00 min 93,8 klux 14,3 C 24,9 C
17.07.2004 12:30 26,9 C 30,7 C 51 % 1015 hPa 0,0 l/m 3,6 m/s (1 Bft) O-SO45 120 5,00 min 106 klux 15,9 C 25,9 C
17.07.2004 12:35 27,0 C 31,3 C 46 % 1015 hPa 0,0 l/m 5,6 m/s (1 Bft) SO45 130 5,00 min 101 klux 14,4 C 25,2 C
17.07.2004 12:40 27,8 C 32,2 C 46 % 1015 hPa 0,0 l/m 3,9 m/s (1 Bft) SO22.5 135 5,00 min 108 klux 15,1 C 26,8 C
17.07.2004 12:45 27,5 C 32,5 C 45 % 1015 hPa 0,0 l/m 4,4 m/s (1 Bft) O-SO45 115 5,00 min 110 klux 14,5 C 26,3 C
17.07.2004 12:50 26,9 C 32,2 C 46 % 1015 hPa 0,0 l/m 5,1 m/s (1 Bft) O-SO45 115 0,00 min 18,3 klux 14,3 C 25,3 C
17.07.2004 12:55 26,0 C 31,0 C 49 % 1015 hPa 0,0 l/m 4,7 m/s (1 Bft) SO45 130 0,00 min 12,5 klux 14,4 C 24,3 C
17.07.2004 13:00 25,5 C 30,5 C 52 % 1015 hPa 0,0 l/m 3,5 m/s (1 Bft) SO45 125 0,00 min 9,4 klux 14,9 C 24,3 C
17.07.2004 13:05 25,3 C 29,5 C 52 % 1015 hPa 0,0 l/m 3,6 m/s (1 Bft) SO45 135 0,00 min 5,52 klux 14,7 C 24,0 C
17.07.2004 13:10 24,9 C 28,5 C 55 % 1015 hPa 0,0 l/m 4,6 m/s (1 Bft) SO45 135 0,00 min 2,88 klux 15,2 C 23,0 C
17.07.2004 13:15 24,5 C 27,6 C 57 % 1015 hPa 0,0 l/m 3,9 m/s (1 Bft) SO22.5 135 0,00 min 1,48 klux 15,4 C 22,8 C
17.07.2004 13:20 22,1 C 26,9 C 64 % 1015 hPa 0,0 l/m 7,4 m/s (2 Bft) S-SW67.5 195 0,00 min 976 lux 15,0 C 18,0 C
17.07.2004 13:25 21,4 C 25,1 C 70 % 1016 hPa 0,7 l/m 6,2 m/s (2 Bft) SW67.5 225 0,00 min 1,59 klux 15,7 C 17,7 C
17.07.2004 13:30 20,2 C 23,5 C 73 % 1016 hPa 0,4 l/m 6,1 m/s (2 Bft) SW45 220 0,00 min 1,92 klux 15,2 C 16,2 C
17.07.2004 13:35 20,0 C 22,8 C 75 % 1016 hPa 0,0 l/m 5,5 m/s (1 Bft) SW45 235 0,00 min 2,01 klux 15,4 C 16,2 C
17.07.2004 13:40 20,0 C 21,8 C 75 % 1016 hPa 0,7 l/m 3,1 m/s (1 Bft) S67.5 190 0,00 min 1,84 klux 15,4 C 18,3 C
17.07.2004 13:45 19,3 C 21,1 C 81 % 1016 hPa 1,1 l/m 4,1 m/s (1 Bft) W22.5 265 0,00 min 1,62 klux 16,0 C 16,5 C
17.07.2004 13:50 19,1 C 20,6 C 85 % 1016 hPa 1,1 l/m 4,3 m/s (1 Bft) W45 265 0,00 min 1,36 klux 16,5 C 16,1 C
17.07.2004 13:55 18,9 C 20,5 C 86 % 1016 hPa 0,0 l/m 4,9 m/s (1 Bft) W45 270 0,00 min 2,24 klux 16,5 C 15,3 C
17.07.2004 14:00 18,9 C 20,1 C 86 % 1016 hPa 0,0 l/m 2,7 m/s (1 Bft) W22.5 265 0,00 min 5,41 klux 16,5 C 17,6 C
17.07.2004 14:05 18,9 C 19,9 C 86 % 1016 hPa 0,0 l/m 3,6 m/s (1 Bft) W-NW45 285 0,00 min 7,52 klux 16,5 C 16,5 C
17.07.2004 14:10 18,8 C 19,8 C 86 % 1016 hPa 0,0 l/m 1,1 m/s (1 Bft) W45 275 0,00 min 8,23 klux 16,4 C 18,8 C
17.07.2004 14:15 18,8 C 19,6 C 86 % 1015 hPa 0,0 l/m 1,9 m/s (1 Bft) W-NW45 295 0,00 min 9,9 klux 16,4 C 18,6 C
17.07.2004 14:20 18,9 C 19,5 C 86 % 1015 hPa 0,0 l/m 2,1 m/s (1 Bft) W45 280 0,00 min 12,2 klux 16,5 C 18,4 C
17.07.2004 14:25 19,1 C 19,6 C 84 % 1015 hPa 0,0 l/m 0,1 m/s (0 Bft) W22.5 270 0,00 min 15,3 klux 16,3 C 19,1 C
17.07.2004 14:30 19,1 C 19,6 C 84 % 1015 hPa 0,0 l/m 1,3 m/s (1 Bft) W 265 0,00 min 19,1 klux 16,3 C 19,1 C
17.07.2004 14:35 19,1 C 19,7 C 84 % 1015 hPa 0,0 l/m 1,6 m/s (1 Bft) W-SW22.5 240 0,00 min 21,1 klux 16,3 C 19,1 C
17.07.2004 14:40 19,4 C 19,8 C 84 % 1015 hPa 0,0 l/m 1,2 m/s (1 Bft) W22.5 260 0,00 min 21,0 klux 16,6 C 19,4 C
17.07.2004 14:45 19,3 C 19,9 C 84 % 1015 hPa 0,0 l/m 3,2 m/s (1 Bft) W-SW22.5 250 0,00 min 35,9 klux 16,5 C 17,4 C
17.07.2004 14:50 19,6 C 20,4 C 85 % 1015 hPa 0,0 l/m 3,2 m/s (1 Bft) W-SW22.5 250 0,00 min 59,2 klux 17,0 C 17,7 C
17.07.2004 14:55 20,6 C 21,2 C 79 % 1015 hPa 0,0 l/m 2,0 m/s (1 Bft) W-SW 250 5,00 min 66,5 klux 16,8 C 20,3 C
17.07.2004 15:00 20,7 C 21,5 C 77 % 1015 hPa 0,0 l/m 1,4 m/s (1 Bft) W-SW22.5 250 0,00 min 50,6 klux 16,5 C 20,7 C
17.07.2004 15:05 21,1 C 21,8 C 73 % 1015 hPa 0,0 l/m 0,4 m/s (0 Bft) W22.5 260 0,00 min 56,3 klux 16,1 C 21,1 C
17.07.2004 15:10 21,6 C 22,2 C 73 % 1015 hPa 0,0 l/m 2,1 m/s (1 Bft) W-SW22.5 255 0,00 min 58,2 klux 16,5 C 21,2 C
17.07.2004 15:15 22,4 C 22,6 C 73 % 1015 hPa 0,0 l/m 0,3 m/s (0 Bft) W-NW22.5 285 0,00 min 54,1 klux 17,3 C 22,4 C
17.07.2004 15:20 22,7 C 22,9 C 72 % 1015 hPa 0,0 l/m 0,0 m/s (0 Bft) W 270 5,00 min 92,4 klux 17,4 C 22,7 C
17.07.2004 15:25 22,5 C 24,0 C 68 % 1015 hPa 0,0 l/m 2,4 m/s (1 Bft) W45 270 5,00 min 80,4 klux 16,3 C 21,7 C
17.07.2004 15:30 23,7 C 24,9 C 68 % 1015 hPa 0,0 l/m 2,4 m/s (1 Bft) W-SW 240 5,00 min 106 klux 17,4 C 23,1 C
17.07.2004 15:35 23,9 C 25,0 C 69 % 1015 hPa 0,0 l/m 1,0 m/s (0 Bft) SO22.5 135 5,00 min 62,1 klux 17,9 C 23,9 C
17.07.2004 15:40 23,3 C 25,0 C 67 % 1015 hPa 0,0 l/m 0,0 m/s (0 Bft) SO22.5 135 0,00 min 46,1 klux 16,8 C 23,3 C
17.07.2004 15:45 22,9 C 24,9 C 67 % 1015 hPa 0,0 l/m 0,0 m/s (0 Bft) S-SO 150 0,00 min 59,8 klux 16,4 C 22,9 C
17.07.2004 15:50 23,8 C 25,3 C 69 % 1015 hPa 0,0 l/m 0,0 m/s (0 Bft) SO22.5 140 5,00 min 82,3 klux 17,8 C 23,8 C
17.07.2004 15:55 23,8 C 26,0 C 65 % 1015 hPa 0,0 l/m 0,1 m/s (0 Bft) S67.5 175 0,00 min 46,9 klux 16,8 C 23,8 C
17.07.2004 16:00 23,5 C 25,7 C 67 % 1015 hPa 0,0 l/m 0,0 m/s (0 Bft) S-SO 155 0,00 min 37,5 klux 17,0 C 23,5 C
17.07.2004 16:05 23,2 C 25,4 C 69 % 1015 hPa 0,0 l/m 0,7 m/s (0 Bft) W-SW 255 0,00 min 34,6 klux 17,2 C 23,2 C
17.07.2004 16:10 23,0 C 25,3 C 71 % 1015 hPa 0,0 l/m 1,1 m/s (0 Bft) O22.5 80 0,00 min 32,8 klux 17,4 C 23,0 C
17.07.2004 16:15 23,1 C 25,2 C 69 % 1015 hPa 0,0 l/m 0,0 m/s (0 Bft) O 85 0,00 min 42,8 klux 17,1 C 23,1 C
17.07.2004 16:20 23,4 C 25,4 C 68 % 1015 hPa 0,0 l/m 0,0 m/s (0 Bft) O22.5 95 0,00 min 42,9 klux 17,1 C 23,4 C
17.07.2004 16:25 23,6 C 25,4 C 70 % 1015 hPa 0,0 l/m 0,3 m/s (0 Bft) O45 95 0,00 min 51,6 klux 17,8 C 23,6 C
17.07.2004 16:30 23,7 C 25,9 C 69 % 1015 hPa 0,0 l/m 1,2 m/s (1 Bft) O22.5 90 5,00 min 94,0 klux 17,7 C 23,7 C
17.07.2004 16:35 24,2 C 27,6 C 67 % 1015 hPa 0,0 l/m 1,3 m/s (1 Bft) O-SO67.5 105 5,00 min 100 klux 17,7 C 24,2 C
17.07.2004 16:40 24,2 C 28,4 C 64 % 1015 hPa 0,0 l/m 1,4 m/s (1 Bft) O-SO22.5 105 5,00 min 91,6 klux 16,9 C 24,2 C
17.07.2004 16:45 23,7 C 29,6 C 66 % 1014 hPa 0,0 l/m 2,9 m/s (1 Bft) O-SO45 120 5,00 min 79,1 klux 17,0 C 22,7 C
17.07.2004 16:50 23,6 C 29,8 C 67 % 1014 hPa 0,0 l/m 2,5 m/s (1 Bft) O45 100 0,00 min 39,4 klux 17,1 C 22,8 C
17.07.2004 16:55 23,7 C 29,2 C 68 % 1014 hPa 0,0 l/m 2,2 m/s (1 Bft) O-SO22.5 110 0,00 min 35,7 klux 17,4 C 23,3 C
17.07.2004 17:00 23,2 C 28,8 C 69 % 1014 hPa 0,0 l/m 2,4 m/s (1 Bft) O-SO45 105 0,00 min 38,7 klux 17,2 C 22,5 C
17.07.2004 17:05 23,2 C 28,4 C 68 % 1014 hPa 0,0 l/m 1,0 m/s (0 Bft) O 95 0,00 min 35,1 klux 17,0 C 23,2 C
17.07.2004 17:10 23,6 C 28,5 C 68 % 1014 hPa 0,0 l/m 1,1 m/s (1 Bft) O22.5 90 5,00 min 65,6 klux 17,3 C 23,6 C
17.07.2004 17:15 23,5 C 29,1 C 67 % 1014 hPa 0,0 l/m 2,9 m/s (1 Bft) O-SO45 105 5,00 min 71,4 klux 17,0 C 22,4 C
17.07.2004 17:20 23,7 C 30,4 C 66 % 1014 hPa 0,0 l/m 2,7 m/s (1 Bft) O-SO22.5 115 5,00 min 63,0 klux 17,0 C 22,8 C
17.07.2004 17:25 23,6 C 31,1 C 69 % 1014 hPa 0,0 l/m 3,9 m/s (1 Bft) O-SO22.5 105 5,00 min 65,2 klux 17,6 C 21,8 C
17.07.2004 17:30 23,8 C 31,2 C 70 % 1014 hPa 0,0 l/m 3,3 m/s (1 Bft) O-SO45 105 5,00 min 56,3 klux 18,0 C 22,4 C
17.07.2004 17:35 23,6 C 31,0 C 69 % 1014 hPa 0,0 l/m 3,2 m/s (1 Bft) O-SO22.5 110 0,00 min 37,9 klux 17,6 C 22,3 C
17.07.2004 17:40 23,6 C 30,7 C 68 % 1014 hPa 0,0 l/m 3,6 m/s (1 Bft) O-SO22.5 115 5,00 min 57,3 klux 17,3 C 22,0 C
17.07.2004 17:45 23,6 C 30,7 C 68 % 1014 hPa 0,0 l/m 4,2 m/s (1 Bft) O-SO45 105 5,00 min 62,6 klux 17,3 C 21,6 C
17.07.2004 17:50 23,7 C 30,9 C 68 % 1014 hPa 0,0 l/m 3,8 m/s (1 Bft) O-SO45 110 5,00 min 65,7 klux 17,4 C 22,0 C
17.07.2004 17:55 23,8 C 31,3 C 67 % 1014 hPa 0,0 l/m 4,3 m/s (1 Bft) O45 95 5,00 min 63,7 klux 17,3 C 21,8 C
17.07.2004 18:00 23,9 C 31,5 C 68 % 1014 hPa 0,0 l/m 4,2 m/s (1 Bft) O-SO22.5 110 5,00 min 59,6 klux 17,6 C 22,0 C
17.07.2004 18:05 23,8 C 31,6 C 68 % 1014 hPa 0,0 l/m 4,3 m/s (1 Bft) O45 95 5,00 min 47,2 klux 17,5 C 21,8 C
17.07.2004 18:10 23,5 C 31,3 C 69 % 1014 hPa 0,0 l/m 4,0 m/s (1 Bft) O45 90 5,00 min 45,5 klux 17,5 C 21,6 C
17.07.2004 18:15 23,5 C 31,1 C 67 % 1013 hPa 0,0 l/m 3,6 m/s (1 Bft) O-SO45 105 5,00 min 51,3 klux 17,0 C 21,9 C
17.07.2004 18:20 23,8 C 31,4 C 67 % 1013 hPa 0,0 l/m 3,1 m/s (1 Bft) O45 95 5,00 min 56,4 klux 17,3 C 22,6 C
17.07.2004 18:25 24,1 C 31,5 C 66 % 1013 hPa 0,0 l/m 2,3 m/s (1 Bft) O-SO45 115 5,00 min 54,0 klux 17,3 C 23,6 C
17.07.2004 18:30 23,7 C 31,6 C 66 % 1013 hPa 0,0 l/m 1,9 m/s (1 Bft) O45 90 5,00 min 46,0 klux 17,0 C 23,6 C
17.07.2004 18:35 24,0 C 31,7 C 65 % 1013 hPa 0,0 l/m 3,3 m/s (1 Bft) O-SO45 115 5,00 min 51,4 klux 17,0 C 22,7 C
17.07.2004 18:40 23,7 C 31,8 C 65 % 1013 hPa 0,0 l/m 3,8 m/s (1 Bft) O-SO22.5 110 5,00 min 50,1 klux 16,7 C 22,0 C
17.07.2004 18:45 24,0 C 31,9 C 65 % 1013 hPa 0,0 l/m 3,3 m/s (1 Bft) O45 90 5,00 min 49,4 klux 17,0 C 22,7 C
17.07.2004 18:50 23,8 C 31,9 C 65 % 1013 hPa 0,0 l/m 3,0 m/s (1 Bft) O45 85 5,00 min 50,6 klux 16,8 C 22,6 C
17.07.2004 18:55 24,0 C 32,0 C 64 % 1013 hPa 0,0 l/m 4,4 m/s (1 Bft) O-SO22.5 115 5,00 min 50,6 klux 16,8 C 22,0 C
17.07.2004 19:00 23,7 C 31,2 C 67 % 1013 hPa 0,0 l/m 3,6 m/s (1 Bft) O-SO22.5 105 0,00 min 16,6 klux 17,2 C 22,1 C
17.07.2004 19:05 23,6 C 30,1 C 67 % 1013 hPa 0,0 l/m 2,9 m/s (1 Bft) O45 95 0,00 min 26,4 klux 17,1 C 22,5 C
17.07.2004 19:10 23,5 C 29,3 C 67 % 1013 hPa 0,0 l/m 2,6 m/s (1 Bft) O45 100 0,00 min 20,8 klux 17,0 C 22,7 C
17.07.2004 19:15 23,4 C 29,0 C 68 % 1013 hPa 0,0 l/m 2,2 m/s (1 Bft) O-SO22.5 110 0,00 min 17,1 klux 17,1 C 23,0 C
17.07.2004 19:20 23,2 C 28,3 C 69 % 1013 hPa 0,0 l/m 1,8 m/s (1 Bft) O45 95 0,00 min 13,4 klux 17,2 C 23,2 C
17.07.2004 19:25 23,0 C 27,6 C 69 % 1013 hPa 0,0 l/m 3,0 m/s (1 Bft) O45 95 0,00 min 13,5 klux 17,0 C 21,8 C
17.07.2004 19:30 23,2 C 27,2 C 70 % 1013 hPa 0,0 l/m 1,9 m/s (1 Bft) O22.5 95 0,00 min 18,2 klux 17,4 C 23,0 C
17.07.2004 19:35 23,5 C 26,9 C 69 % 1013 hPa 0,0 l/m 1,8 m/s (1 Bft) O-SO22.5 115 5,00 min 24,9 klux 17,5 C 23,5 C
17.07.2004 19:40 23,7 C 27,0 C 68 % 1013 hPa 0,0 l/m 1,2 m/s (1 Bft) O22.5 90 5,00 min 22,1 klux 17,4 C 23,7 C
17.07.2004 19:45 23,5 C 26,8 C 68 % 1013 hPa 0,0 l/m 1,9 m/s (1 Bft) O22.5 100 0,00 min 19,0 klux 17,2 C 23,4 C
17.07.2004 19:50 23,4 C 26,5 C 69 % 1013 hPa 0,0 l/m 2,0 m/s (1 Bft) O22.5 95 0,00 min 15,8 klux 17,4 C 23,1 C
17.07.2004 19:55 23,3 C 26,3 C 69 % 1013 hPa 0,0 l/m 1,9 m/s (1 Bft) O22.5 85 5,00 min 17,7 klux 17,3 C 23,2 C
17.07.2004 20:00 23,2 C 25,8 C 71 % 1013 hPa 0,0 l/m 1,9 m/s (1 Bft) O22.5 90 0,00 min 11,4 klux 17,6 C 23,1 C
17.07.2004 20:05 22,7 C 25,6 C 73 % 1013 hPa 0,0 l/m 1,9 m/s (1 Bft) O45 85 0,00 min 10,2 klux 17,6 C 22,5 C
17.07.2004 20:10 22,5 C 25,2 C 73 % 1013 hPa 0,0 l/m 2,1 m/s (1 Bft) O22.5 85 0,00 min 8,98 klux 17,4 C 22,1 C
17.07.2004 20:15 22,5 C 24,8 C 73 % 1013 hPa 0,0 l/m 1,9 m/s (1 Bft) O-SO22.5 110 0,00 min 7,53 klux 17,4 C 22,3 C
17.07.2004 20:20 22,3 C 24,6 C 74 % 1013 hPa 0,0 l/m 2,7 m/s (1 Bft) O-SO22.5 105 0,00 min 6,34 klux 17,4 C 21,2 C
17.07.2004 20:25 22,1 C 24,3 C 75 % 1013 hPa 0,0 l/m 1,4 m/s (1 Bft) O22.5 85 0,00 min 5,56 klux 17,5 C 22,1 C
17.07.2004 20:30 22,0 C 24,0 C 75 % 1013 hPa 0,0 l/m 0,9 m/s (0 Bft) O-SO22.5 105 0,00 min 5,35 klux 17,4 C 22,0 C
17.07.2004 20:35 21,9 C 23,7 C 77 % 1013 hPa 0,0 l/m 0,0 m/s (0 Bft) O 95 0,00 min 5,25 klux 17,7 C 21,9 C
17.07.2004 20:40 21,7 C 23,7 C 78 % 1013 hPa 0,0 l/m 0,0 m/s (0 Bft) O 95 0,00 min 4,89 klux 17,7 C 21,7 C
17.07.2004 20:45 21,6 C 23,3 C 78 % 1013 hPa 0,0 l/m 0,8 m/s (0 Bft) O22.5 85 0,00 min 4,49 klux 17,6 C 21,6 C
17.07.2004 20:50 21,5 C 23,0 C 79 % 1013 hPa 0,0 l/m 0,9 m/s (0 Bft) O-NO 75 0,00 min 3,43 klux 17,7 C 21,5 C
17.07.2004 20:55 21,2 C 22,9 C 80 % 1013 hPa 0,0 l/m 1,0 m/s (0 Bft) O-NO22.5 60 0,00 min 2,47 klux 17,6 C 21,2 C
17.07.2004 21:00 20,9 C 22,6 C 82 % 1013 hPa 0,0 l/m 0,1 m/s (0 Bft) O 100 0,00 min 1,82 klux 17,7 C 20,9 C
17.07.2004 21:05 20,9 C 22,4 C 82 % 1013 hPa 0,0 l/m 0,9 m/s (0 Bft) O-NO22.5 70 0,00 min 1,08 klux 17,7 C 20,9 C
17.07.2004 21:10 20,8 C 22,2 C 82 % 1013 hPa 0,0 l/m 0,2 m/s (0 Bft) O-NO 60 0,00 min 925 lux 17,6 C 20,8 C
17.07.2004 21:15 20,7 C 22,1 C 83 % 1013 hPa 0,0 l/m 1,1 m/s (1 Bft) O-NO 70 0,00 min 522 lux 17,7 C 20,7 C
17.07.2004 21:20 20,7 C 22,0 C 83 % 1013 hPa 0,0 l/m 0,1 m/s (0 Bft) O-NO 60 0,00 min 166 lux 17,7 C 20,7 C
17.07.2004 21:25 20,5 C 21,8 C 84 % 1014 hPa 0,0 l/m 12,4 m/s (3 Bft) O-SO 115 0,00 min 12 lux 17,7 C 14,1 C
17.07.2004 21:30 19,7 C 21,8 C 63 % 1015 hPa 0,0 l/m 13,3 m/s (3 Bft) W-SW22.5 255 0,00 min 6 lux 12,5 C 12,7 C
17.07.2004 21:35 19,2 C 21,1 C 66 % 1015 hPa 0,0 l/m 9,7 m/s (2 Bft) W-SW45 255 0,00 min 6 lux 12,7 C 13,0 C
17.07.2004 21:40 18,5 C 20,5 C 73 % 1016 hPa 0,0 l/m 11,5 m/s (2 Bft) W45 265 0,00 min 6 lux 13,6 C 11,4 C
17.07.2004 21:45 18,0 C 20,3 C 77 % 1016 hPa 0,4 l/m 4,4 m/s (1 Bft) W22.5 260 0,00 min 4 lux 13,9 C 14,6 C
17.07.2004 21:50 18,0 C 19,8 C 78 % 1016 hPa 0,0 l/m 3,8 m/s (1 Bft) W22.5 260 0,00 min 2 lux 14,1 C 15,2 C
17.07.2004 21:55 17,7 C 19,5 C 80 % 1016 hPa 0,0 l/m 3,4 m/s (1 Bft) W-SW22.5 250 0,00 min 0 lux 14,2 C 15,3 C
17.07.2004 22:00 17,7 C 19,3 C 81 % 1016 hPa 0,0 l/m 2,1 m/s (1 Bft) W22.5 265 0,00 min 0 lux 14,4 C 17,1 C
17.07.2004 22:05 17,5 C 19,1 C 82 % 1016 hPa 0,4 l/m 2,6 m/s (1 Bft) W-SW22.5 255 0,00 min 0 lux 14,4 C 16,2 C
17.07.2004 22:10 17,5 C 19,0 C 83 % 1016 hPa 0,0 l/m 2,2 m/s (1 Bft) W22.5 265 0,00 min 0 lux 14,6 C 16,8 C
17.07.2004 22:15 17,3 C 18,7 C 83 % 1016 hPa 0,4 l/m 2,7 m/s (1 Bft) W22.5 260 0,00 min 0 lux 14,4 C 15,8 C
17.07.2004 22:20 17,3 C 18,7 C 84 % 1016 hPa 0,4 l/m 1,5 m/s (1 Bft) W-SW22.5 255 0,00 min 0 lux 14,6 C 17,3 C
17.07.2004 22:25 17,2 C 18,6 C 84 % 1016 hPa 0,4 l/m 1,7 m/s (1 Bft) W22.5 270 0,00 min 0 lux 14,5 C 17,2 C
17.07.2004 22:30 17,1 C 18,4 C 85 % 1016 hPa 0,4 l/m 2,0 m/s (1 Bft) W22.5 275 0,00 min 0 lux 14,6 C 16,7 C
17.07.2004 22:35 17,0 C 18,3 C 86 % 1016 hPa 0,4 l/m 2,0 m/s (1 Bft) W-NW22.5 285 0,00 min 0 lux 14,6 C 16,6 C
17.07.2004 22:40 17,0 C 18,2 C 86 % 1016 hPa 0,4 l/m 2,6 m/s (1 Bft) W22.5 280 0,00 min 0 lux 14,6 C 15,6 C
17.07.2004 22:45 17,0 C 18,2 C 87 % 1016 hPa 0,4 l/m 1,6 m/s (1 Bft) W-NW22.5 290 0,00 min 0 lux 14,8 C 17,0 C
17.07.2004 22:50 17,0 C 18,1 C 87 % 1016 hPa 0,4 l/m 0,2 m/s (0 Bft) W-NW22.5 290 0,00 min 0 lux 14,8 C 17,0 C
17.07.2004 22:55 17,0 C 18,1 C 88 % 1016 hPa 0,0 l/m 0,2 m/s (0 Bft) W-NW22.5 285 0,00 min 0 lux 15,0 C 17,0 C
17.07.2004 23:00 17,0 C 17,9 C 88 % 1016 hPa 0,0 l/m 1,1 m/s (0 Bft) NW22.5 310 0,00 min 0 lux 15,0 C 17,0 C
17.07.2004 23:05 17,0 C 17,9 C 88 % 1016 hPa 0,0 l/m 0,0 m/s (0 Bft) NW 305 0,00 min 0 lux 15,0 C 17,0 C
17.07.2004 23:10 16,9 C 17,9 C 89 % 1016 hPa 0,4 l/m 0,0 m/s (0 Bft) NW 305 0,00 min 0 lux 15,1 C 16,9 C
17.07.2004 23:15 16,8 C 17,9 C 90 % 1016 hPa 0,0 l/m 1,4 m/s (1 Bft) O-SO 110 0,00 min 0 lux 15,1 C 16,8 C
17.07.2004 23:20 16,7 C 17,8 C 90 % 1015 hPa 0,0 l/m 1,9 m/s (1 Bft) O-SO22.5 115 0,00 min 0 lux 15,0 C 16,4 C
17.07.2004 23:25 16,8 C 17,8 C 91 % 1015 hPa 0,0 l/m 1,2 m/s (1 Bft) O-NO 75 0,00 min 0 lux 15,3 C 16,8 C
17.07.2004 23:30 16,6 C 17,8 C 91 % 1015 hPa 0,0 l/m 0,0 m/s (0 Bft) O-NO 75 0,00 min 0 lux 15,1 C 16,6 C
17.07.2004 23:35 16,8 C 17,7 C 91 % 1015 hPa 0,0 l/m 0,8 m/s (0 Bft) SO 135 0,00 min 0 lux 15,3 C 16,8 C
17.07.2004 23:40 16,7 C 17,6 C 91 % 1015 hPa 0,0 l/m 0,0 m/s (0 Bft) SO 135 0,00 min 0 lux 15,2 C 16,7 C
17.07.2004 23:45 16,7 C 17,6 C 91 % 1015 hPa 0,0 l/m 1,4 m/s (1 Bft) O-SO22.5 115 0,00 min 0 lux 15,2 C 16,7 C
17.07.2004 23:50 16,5 C 17,5 C 91 % 1015 hPa 0,0 l/m 4,0 m/s (1 Bft) O-SO45 120 0,00 min 0 lux 15,0 C 13,2 C
17.07.2004 23:55 16,5 C 17,3 C 92 % 1015 hPa 0,0 l/m 0,0 m/s (0 Bft) O22.5 90 0,00 min 0 lux 15,2 C 16,5 C
_ Min-Zeit 03:55 04:00 12:45 18:15 - 00:00 - - - - 03:55 21:40
Minimum _ 13,0 C 14,1 C 45 % 1013 hPa - 0,0 m/s (0 Bft) - - - - 11,7 C 11,4 C
_ Max-Zeit 12:40 12:45 05:10 00:00 13:45 21:30 - - 07:40 11:40 17:30 12:40
Maximum _ 27,8 C 32,5 C 94 % 1017 hPa 1,1 l/m 13,3 m/s
W-SW (6 Bft)
- - 5,00 min 110 klux 18,0 C 26,8 C
Durchschnitt _ 19,3 C 21,0 C 77 % 1016 hPa #7,9 l/m 1,7 m/s (2 Bft) O-SO - #7:40 h 27,1 klux 14,7 C 18,6 C